N604FS ENGM-EHAM

Flight info

Callsign N604FS
Flight time N/A
Altitude 40000
Route VIPPA DCT IPSUB P174 KUBAT T200 BLUFA
Aircraft CL60/M-SADE3FGHIJ3J4J7P2RWXY/HB1D1

Departure

Time 2026-04-30 04:08
Airport Oslo-Gardermoen International Airport (ENGM)

Arrival

Time N/A
Airport Amsterdam Airport Schiphol (EHAM)
Time Latitude Longitude Altitude Speed Heading
2026-04-30 03:46 60.20352 11.07710 689 ft 0 kts 286°
2026-04-30 03:58 60.20352 11.07709 689 ft 0 kts 286°
2026-04-30 03:58 60.20352 11.07710 689 ft 0 kts 286°
2026-04-30 03:58 60.20348 11.07737 689 ft 2 kts 286°
2026-04-30 03:59 60.20344 11.07766 689 ft 2 kts 286°
2026-04-30 03:59 60.20340 11.07796 689 ft 2 kts 286°
2026-04-30 03:59 60.20336 11.07825 689 ft 2 kts 286°
2026-04-30 03:59 60.20332 11.07854 689 ft 2 kts 286°
2026-04-30 04:00 60.20328 11.07881 689 ft 0 kts 286°
2026-04-30 04:00 60.20327 11.07895 689 ft 1 kts 244°
2026-04-30 04:00 60.20334 11.07905 689 ft 1 kts 194°
2026-04-30 04:00 60.20336 11.07906 689 ft 0 kts 196°
2026-04-30 04:01 60.20296 11.07883 689 ft 13 kts 197°
2026-04-30 04:02 60.20179 11.07812 689 ft 19 kts 196°
2026-04-30 04:02 60.20043 11.07776 689 ft 20 kts 174°
2026-04-30 04:02 60.19900 11.07801 689 ft 21 kts 175°
2026-04-30 04:02 60.19809 11.07843 689 ft 8 kts 130°
2026-04-30 04:03 60.19777 11.08014 689 ft 17 kts 117°
2026-04-30 04:03 60.19659 11.08048 689 ft 20 kts 197°
2026-04-30 04:03 60.19508 11.07955 689 ft 24 kts 196°
2026-04-30 04:03 60.19374 11.07880 689 ft 19 kts 196°
2026-04-30 04:04 60.19288 11.07910 689 ft 15 kts 138°
2026-04-30 04:04 60.19247 11.08114 689 ft 10 kts 107°
2026-04-30 04:04 60.19182 11.08161 689 ft 12 kts 196°
2026-04-30 04:04 60.19080 11.08102 689 ft 18 kts 196°
2026-04-30 04:05 60.18933 11.08015 689 ft 24 kts 195°
2026-04-30 04:05 60.18763 11.07919 689 ft 25 kts 195°
2026-04-30 04:05 60.18607 11.07828 689 ft 15 kts 196°
2026-04-30 04:05 60.18561 11.07736 689 ft 8 kts 269°
2026-04-30 04:06 60.18572 11.07643 689 ft 9 kts 285°
2026-04-30 04:06 60.18592 11.07497 689 ft 11 kts 286°
2026-04-30 04:06 60.18634 11.07454 689 ft 8 kts 14°
2026-04-30 04:06 60.18720 11.07501 689 ft 22 kts 15°
2026-04-30 04:07 60.19050 11.07692 689 ft 85 kts 16°
2026-04-30 04:07 60.19719 11.08072 689 ft 117 kts 16°
2026-04-30 04:07 60.20719 11.08647 971 ft 171 kts 15°
2026-04-30 04:08 60.23051 11.09987 3090 ft 188 kts 14°
2026-04-30 04:08 60.24349 11.10739 4151 ft 208 kts 13°
2026-04-30 04:08 60.25838 11.11210 5024 ft 229 kts 358°
2026-04-30 04:08 60.27433 11.10694 5949 ft 244 kts 333°
2026-04-30 04:09 60.28741 11.08500 6995 ft 252 kts 302°
2026-04-30 04:09 60.29296 11.06138 7824 ft 257 kts 287°
2026-04-30 04:09 60.29797 11.02687 8968 ft 264 kts 283°
2026-04-30 04:09 60.30196 10.99599 9978 ft 268 kts 281°
2026-04-30 04:10 60.30651 10.95980 11105 ft 273 kts 280°
2026-04-30 04:10 60.31110 10.92268 12158 ft 280 kts 278°
2026-04-30 04:10 60.31567 10.88490 13221 ft 284 kts 278°
2026-04-30 04:10 60.31943 10.84610 14305 ft 281 kts 266°
2026-04-30 04:11 60.31588 10.80895 15339 ft 270 kts 240°
2026-04-30 04:11 60.30434 10.78017 16367 ft 269 kts 219°
2026-04-30 04:11 60.28933 10.75764 17370 ft 273 kts 215°
2026-04-30 04:11 60.27357 10.73638 18331 ft 277 kts 214°
2026-04-30 04:12 60.25734 10.71534 19264 ft 280 kts 213°
2026-04-30 04:12 60.24057 10.69398 20171 ft 284 kts 213°
2026-04-30 04:12 60.22380 10.67281 21025 ft 288 kts 213°
2026-04-30 04:12 60.20683 10.65150 21843 ft 291 kts 213°
2026-04-30 04:13 60.18969 10.63005 22623 ft 295 kts 213°
2026-04-30 04:13 60.17091 10.61158 23378 ft 301 kts 202°
2026-04-30 04:13 60.15047 10.59935 24109 ft 306 kts 198°
2026-04-30 04:13 60.12967 10.58944 24812 ft 310 kts 197°
2026-04-30 04:14 60.10863 10.58063 25489 ft 314 kts 195°
2026-04-30 04:14 60.08675 10.57214 26150 ft 318 kts 195°
2026-04-30 04:14 60.06517 10.56413 26770 ft 321 kts 195°
2026-04-30 04:14 60.04300 10.55612 27366 ft 324 kts 195°
2026-04-30 04:15 60.02080 10.54821 27937 ft 327 kts 195°
2026-04-30 04:15 59.99810 10.54021 28492 ft 330 kts 195°
2026-04-30 04:15 59.97558 10.53232 29017 ft 333 kts 195°
2026-04-30 04:15 59.95266 10.52432 29535 ft 336 kts 195°
2026-04-30 04:16 59.92961 10.51630 30026 ft 339 kts 195°
2026-04-30 04:16 59.90625 10.50819 30506 ft 341 kts 195°
2026-04-30 04:16 59.88274 10.50005 30976 ft 344 kts 195°
2026-04-30 04:16 59.85916 10.49190 31433 ft 346 kts 195°
2026-04-30 04:17 59.83555 10.48375 31862 ft 349 kts 195°
2026-04-30 04:17 59.81158 10.47541 32264 ft 351 kts 195°
2026-04-30 04:17 59.78728 10.46697 32643 ft 353 kts 195°
2026-04-30 04:17 59.76296 10.45853 32996 ft 356 kts 195°
2026-04-30 04:18 59.73874 10.45016 33327 ft 358 kts 195°
2026-04-30 04:18 59.71407 10.44166 33647 ft 360 kts 195°
2026-04-30 04:18 59.68948 10.43321 33962 ft 362 kts 195°
2026-04-30 04:18 59.66470 10.42472 34337 ft 361 kts 195°
2026-04-30 04:19 59.64002 10.41628 34726 ft 361 kts 195°
2026-04-30 04:19 59.61516 10.40766 35113 ft 359 kts 196°
2026-04-30 04:19 59.59091 10.39649 35480 ft 356 kts 200°
2026-04-30 04:19 59.56728 10.38248 35833 ft 355 kts 202°
2026-04-30 04:20 59.54382 10.36781 36173 ft 354 kts 202°
2026-04-30 04:20 59.52047 10.35305 36501 ft 354 kts 202°
2026-04-30 04:20 59.49703 10.33819 36807 ft 354 kts 201°
2026-04-30 04:20 59.47364 10.32332 37099 ft 354 kts 201°
2026-04-30 04:21 59.45015 10.30837 37385 ft 354 kts 201°
2026-04-30 04:21 59.42690 10.29356 37660 ft 354 kts 201°
2026-04-30 04:21 59.40322 10.27848 37931 ft 354 kts 201°
2026-04-30 04:21 59.37984 10.26359 38189 ft 354 kts 201°
2026-04-30 04:22 59.35656 10.24877 38437 ft 354 kts 201°
2026-04-30 04:22 59.33318 10.23390 38677 ft 354 kts 201°
2026-04-30 04:22 59.30969 10.21897 38909 ft 354 kts 201°
2026-04-30 04:22 59.28633 10.20413 39132 ft 354 kts 201°
2026-04-30 04:23 59.26298 10.18931 39347 ft 354 kts 201°
2026-04-30 04:23 59.23937 10.17434 39555 ft 354 kts 201°
2026-04-30 04:23 59.21582 10.15941 39611 ft 358 kts 201°
2026-04-30 04:24 59.16783 10.12903 39637 ft 367 kts 201°
2026-04-30 04:24 59.11864 10.09795 39663 ft 376 kts 201°
2026-04-30 04:25 59.06844 10.06634 39691 ft 384 kts 201°
2026-04-30 04:25 59.01708 10.03414 39715 ft 391 kts 201°
2026-04-30 04:26 58.96473 10.00154 39749 ft 398 kts 202°
2026-04-30 04:26 58.91154 9.96844 39787 ft 405 kts 202°
2026-04-30 04:27 58.85749 9.93483 39822 ft 412 kts 203°
2026-04-30 04:27 58.80293 9.90091 39907 ft 417 kts 203°
2026-04-30 04:28 58.74737 9.86653 40127 ft 419 kts 203°
2026-04-30 04:28 58.71959 9.84940 40257 ft 419 kts 203°
2026-04-30 04:28 58.69173 9.83225 40313 ft 420 kts 203°
2026-04-30 04:29 58.63607 9.79809 40323 ft 420 kts 202°
2026-04-30 04:29 58.58052 9.76412 40325 ft 420 kts 202°
2026-04-30 04:30 58.52506 9.73035 40326 ft 419 kts 202°
2026-04-30 04:30 58.46971 9.69674 40327 ft 418 kts 202°
2026-04-30 04:31 58.41401 9.66304 40327 ft 418 kts 202°
2026-04-30 04:31 58.35855 9.62960 40327 ft 418 kts 202°
2026-04-30 04:32 58.30326 9.59637 40327 ft 418 kts 202°
2026-04-30 04:32 58.24781 9.56316 40329 ft 418 kts 202°
2026-04-30 04:33 58.19240 9.53007 40336 ft 418 kts 202°
2026-04-30 04:33 58.13690 9.49704 40348 ft 418 kts 202°
2026-04-30 04:34 58.08138 9.46411 40362 ft 418 kts 202°
2026-04-30 04:34 58.02625 9.43151 40372 ft 419 kts 202°
2026-04-30 04:35 57.97047 9.39864 40378 ft 419 kts 202°
2026-04-30 04:35 57.91522 9.36618 40382 ft 419 kts 202°
2026-04-30 04:36 57.85937 9.33350 40388 ft 419 kts 202°
2026-04-30 04:36 57.80724 9.30243 40274 ft 426 kts 197°
2026-04-30 04:37 57.75010 9.26917 40191 ft 437 kts 197°
2026-04-30 04:37 57.69102 9.23504 40102 ft 447 kts 197°
2026-04-30 04:38 57.63097 9.20043 40051 ft 456 kts 197°
2026-04-30 04:38 57.57005 9.16540 40020 ft 463 kts 197°
2026-04-30 04:39 57.50831 9.12999 39996 ft 467 kts 197°
2026-04-30 04:39 57.44587 9.09430 39988 ft 469 kts 197°
2026-04-30 04:40 57.38343 9.05873 39975 ft 469 kts 197°
2026-04-30 04:40 57.32103 9.02330 39974 ft 470 kts 197°
2026-04-30 04:41 57.25872 8.98805 39971 ft 470 kts 197°
2026-04-30 04:41 57.19619 8.95280 39969 ft 470 kts 197°
2026-04-30 04:42 57.13358 8.91763 39968 ft 470 kts 197°
2026-04-30 04:42 57.07121 8.88272 39967 ft 470 kts 197°
2026-04-30 04:43 57.00874 8.84787 39967 ft 470 kts 197°
2026-04-30 04:43 56.94626 8.81314 39967 ft 470 kts 197°
2026-04-30 04:44 56.88332 8.77827 39967 ft 470 kts 197°
2026-04-30 04:44 56.82109 8.74392 39967 ft 470 kts 197°
2026-04-30 04:45 56.75814 8.70930 39967 ft 470 kts 197°
2026-04-30 04:45 56.69588 8.67517 39967 ft 470 kts 197°
2026-04-30 04:46 56.63325 8.64096 39967 ft 470 kts 197°
2026-04-30 04:46 56.57068 8.60689 39967 ft 470 kts 197°
2026-04-30 04:47 56.50789 8.57283 39966 ft 470 kts 197°
2026-04-30 04:47 56.44545 8.53907 39967 ft 470 kts 197°
2026-04-30 04:48 56.38287 8.50535 39968 ft 470 kts 197°
2026-04-30 04:48 56.31985 8.47152 39968 ft 470 kts 197°
2026-04-30 04:49 56.25754 8.43818 39968 ft 470 kts 197°
2026-04-30 04:49 56.19452 8.40457 39968 ft 470 kts 197°
2026-04-30 04:50 56.13171 8.37119 39969 ft 470 kts 197°
2026-04-30 04:50 56.06919 8.33808 39969 ft 470 kts 196°
2026-04-30 04:51 56.00634 8.30491 39969 ft 470 kts 196°
2026-04-30 04:51 55.94352 8.27187 39969 ft 470 kts 196°
2026-04-30 04:52 55.88100 8.23908 39969 ft 470 kts 196°
2026-04-30 04:52 55.81809 8.20621 39969 ft 470 kts 196°
2026-04-30 04:53 55.75518 8.17345 39970 ft 470 kts 196°
2026-04-30 04:53 55.69244 8.14089 39970 ft 470 kts 196°
2026-04-30 04:54 55.62960 8.10839 39970 ft 470 kts 196°
2026-04-30 04:54 55.56717 8.07620 39970 ft 470 kts 196°
2026-04-30 04:55 55.50431 8.04390 39970 ft 470 kts 196°
2026-04-30 04:55 55.44121 8.01158 39969 ft 470 kts 196°
2026-04-30 04:56 55.37833 7.97948 39970 ft 470 kts 196°
2026-04-30 04:56 55.31638 7.94795 39970 ft 452 kts 197°
2026-04-30 04:57 55.25769 7.91592 40021 ft 432 kts 206°
2026-04-30 04:57 55.23533 7.88201 38077 ft 470 kts 244°
2026-04-30 04:57 55.23595 7.84260 28481 ft 560 kts 330°
2026-04-30 04:57 55.25465 7.86423 18148 ft 550 kts 73°
2026-04-30 04:58 55.24101 7.91536 16077 ft 505 kts 166°
2026-04-30 04:58 55.22223 7.88771 9660 ft 558 kts 307°
2026-04-30 04:58 55.25150 7.88151 7180 ft 444 kts 327°
2026-04-30 04:58 55.24770 7.89236 13495 ft 190 kts 120°
2026-04-30 04:59 55.24737 7.91653 11617 ft 288 kts 60°
2026-04-30 04:59 55.25600 7.94280 13276 ft 210 kts 88°
2026-04-30 04:59 55.25458 7.96185 11339 ft 305 kts 345°
2026-04-30 04:59 55.25443 7.96551 1533 ft 438 kts 122°
2026-04-30 05:00 55.25597 7.96800 2 ft 71 kts 38°
2026-04-30 05:00 55.26229 7.97426 2 ft 129 kts 27°
2026-04-30 05:00 55.27125 7.98131 1 ft 148 kts 24°
2026-04-30 05:00 55.27567 7.98476 -3 ft 13 kts
2026-04-30 05:01 55.27642 7.98391 -4 ft 1 kts 46°
2026-04-30 05:01 55.27761 7.98330 -3 ft 22 kts 343°
2026-04-30 05:01 55.27916 7.98283 -3 ft 22 kts 337°
2026-04-30 05:01 55.28068 7.98231 -3 ft 22 kts 338°
2026-04-30 05:02 55.28222 7.98179 -3 ft 22 kts 338°
2026-04-30 05:02 55.28376 7.98126 -4 ft 22 kts 338°
2026-04-30 05:02 55.28530 7.98074 -4 ft 22 kts 338°
2026-04-30 05:02 55.28675 7.98036 -4 ft 18 kts
2026-04-30 05:03 55.28780 7.98074 -4 ft 13 kts 17°
2026-04-30 05:03 55.28869 7.98122 -4 ft 13 kts 17°
2026-04-30 05:03 55.28956 7.98169 -4 ft 13 kts 17°
2026-04-30 05:03 55.29044 7.98217 -4 ft 13 kts 17°
2026-04-30 05:04 55.29133 7.98264 -4 ft 13 kts 17°
2026-04-30 05:04 55.29221 7.98312 -4 ft 13 kts 17°
2026-04-30 05:04 55.29309 7.98360 -4 ft 13 kts 17°
2026-04-30 05:04 55.29395 7.98407 -4 ft 13 kts 17°
2026-04-30 05:05 55.29484 7.98454 -4 ft 13 kts 17°
2026-04-30 05:05 55.29572 7.98502 -4 ft 13 kts 17°
2026-04-30 05:05 55.29659 7.98549 -4 ft 13 kts 17°
2026-04-30 05:06 55.29836 7.98645 -3 ft 13 kts 17°
2026-04-30 05:06 55.29922 7.98692 -3 ft 13 kts 17°
2026-04-30 05:06 55.30011 7.98740 -3 ft 13 kts 17°
2026-04-30 05:06 55.30098 7.98787 -3 ft 13 kts 17°
2026-04-30 05:07 55.30186 7.98834 -3 ft 13 kts 17°
2026-04-30 05:07 55.30274 7.98882 -3 ft 13 kts 17°
2026-04-30 05:07 55.30362 7.98930 -3 ft 13 kts 17°
2026-04-30 05:07 55.30449 7.98977 -4 ft 13 kts 17°
2026-04-30 05:08 55.30537 7.99024 -4 ft 13 kts 17°
2026-04-30 05:08 55.30625 7.99072 -4 ft 13 kts 17°
2026-04-30 05:08 55.30714 7.99120 -4 ft 13 kts 17°
2026-04-30 05:08 55.30801 7.99167 -4 ft 13 kts 17°
2026-04-30 05:09 55.30889 7.99215 -4 ft 13 kts 17°
2026-04-30 05:09 55.30978 7.99263 -4 ft 13 kts 17°
2026-04-30 05:09 55.31066 7.99311 -4 ft 13 kts 17°
2026-04-30 05:09 55.31155 7.99359 -4 ft 13 kts 17°
2026-04-30 05:10 55.31242 7.99406 -4 ft 13 kts 17°
2026-04-30 05:10 55.31330 7.99454 -4 ft 13 kts 17°
2026-04-30 05:10 55.31417 7.99501 -4 ft 13 kts 17°
2026-04-30 05:10 55.31505 7.99549 -4 ft 13 kts 17°
2026-04-30 05:11 55.31593 7.99596 -4 ft 13 kts 17°
2026-04-30 05:11 55.31680 7.99644 -4 ft 13 kts 17°
2026-04-30 05:11 55.31768 7.99691 -4 ft 13 kts 17°
2026-04-30 05:11 55.31856 7.99740 -3 ft 13 kts 17°
2026-04-30 05:12 55.31944 7.99787 -3 ft 13 kts 17°
2026-04-30 05:12 55.32031 7.99834 -3 ft 13 kts 17°
2026-04-30 05:12 55.32120 7.99882 -3 ft 13 kts 17°
2026-04-30 05:12 55.32207 7.99930 -3 ft 13 kts 17°
2026-04-30 05:13 55.32295 7.99977 -3 ft 13 kts 17°
2026-04-30 05:13 55.32382 8.00024 -4 ft 13 kts 17°
2026-04-30 05:13 55.32470 8.00071 -4 ft 13 kts 17°
2026-04-30 05:13 55.32557 8.00119 -4 ft 13 kts 17°
2026-04-30 05:14 55.32645 8.00166 -4 ft 13 kts 17°
2026-04-30 05:14 55.32733 8.00214 -4 ft 13 kts 17°
2026-04-30 05:14 55.32820 8.00262 -4 ft 13 kts 17°
2026-04-30 05:14 55.32908 8.00309 -4 ft 13 kts 17°
2026-04-30 05:15 55.32996 8.00357 -4 ft 13 kts 17°
2026-04-30 05:15 55.33083 8.00404 -4 ft 13 kts 17°
2026-04-30 05:15 55.33171 8.00451 -4 ft 13 kts 17°
2026-04-30 05:15 55.33259 8.00499 -4 ft 13 kts 17°
2026-04-30 05:16 55.33347 8.00547 -4 ft 13 kts 17°
2026-04-30 05:16 55.33434 8.00594 -4 ft 13 kts 17°
2026-04-30 05:16 55.33522 8.00642 -4 ft 13 kts 17°
2026-04-30 05:16 55.33610 8.00689 -4 ft 13 kts 17°
2026-04-30 05:17 55.33698 8.00737 -4 ft 13 kts 17°
2026-04-30 05:17 55.33785 8.00784 -4 ft 13 kts 17°
2026-04-30 05:17 55.33872 8.00831 -4 ft 13 kts 17°
2026-04-30 05:17 55.33961 8.00879 -4 ft 13 kts 17°
2026-04-30 05:18 55.34049 8.00927 -4 ft 13 kts 17°
2026-04-30 05:18 55.34135 8.00974 -4 ft 13 kts 17°
2026-04-30 05:18 55.34223 8.01021 -4 ft 13 kts 17°
2026-04-30 05:18 55.34311 8.01069 -4 ft 13 kts 17°
2026-04-30 05:19 55.34399 8.01116 -4 ft 13 kts 17°
2026-04-30 05:19 55.34486 8.01164 -4 ft 13 kts 17°
2026-04-30 05:19 55.34573 8.01211 -4 ft 13 kts 17°
2026-04-30 05:19 55.34661 8.01259 -4 ft 13 kts 17°
2026-04-30 05:20 55.34748 8.01306 -4 ft 13 kts 17°
2026-04-30 05:20 55.34837 8.01354 -4 ft 13 kts 17°
2026-04-30 05:20 55.34925 8.01402 -4 ft 13 kts 17°
2026-04-30 05:20 55.35012 8.01449 -4 ft 13 kts 17°